Home   Weather   Liezen   Past weeks

Flag for Austria Past Weather in Liezen, Styria, Austria — Yesterday and Last 2 Weeks

Now
19 °F

Cold.


Feels Like: 19 °F
Forecast: 3 / 36 °F
Wind: No wind

Location: Aigen Im Ennstal

Current Time: Jan 24, 2017 at 6:28:39 pm

Latest Report: Jan 24, 2017 at 5:00 pm


Visibility: N/A

Pressure: 30.38 "Hg (27.91 "Hg at 661m altitude)

Humidity: 83%

Dew Point: 15 °F

Location of LiezenLocation

Past Weather in Liezen — Graph

°F

Liezen Temperature Yesterday

Maximum temperature yesterday: 28 °F (at 3:00 pm)
Minimum temperature yesterday: 6 °F (at 8:00 am)
Average temperature yesterday: 14 °F

High & Low Weather Summary for the Past Weeks

 TemperatureHumidityPressure
High40 °F (Jan 12, 1:00 pm)95% (Jan 12, 8:00 pm)30.81 "Hg (Jan 12, 8:00 pm)
Low-2 °F (Jan 21, 8:00 am)50% (Jan 13, 3:00 pm)29.57 "Hg (Jan 13, 6:00 am)
Average18 °F80%30.31 "Hg
* Reported Jan 9 5:00 pm — Jan 24 5:00 pm, Liezen, Weather by CustomWeather, © 2017

Note: Actual official high and low records may vary slightly from our data, if they occured in-between our weather recording intervals... More about our weather records

Advertising

Liezen Weather History for the Previous 24 Hours

Scroll right to see more
 ConditionsComfort  
Time TempWeatherWind HumidityBarometerVisibility
5:00 pm
Tue, Jan 24
19 °FCold.No wind83%30.38 "HgN/A
4:00 pm21 °FSunny.1 mph85%30.33 "Hg31 mi
3:00 pm20 °FCold.No wind85%30.34 "HgN/A
2:00 pm18 °FCold.No wind86%30.35 "HgN/A
1:00 pm18 °FSunny.No wind86%30.37 "Hg31 mi
12:00 pm10 °FCold.1 mph84%30.43 "HgN/A
11:00 am9 °FFrigid.1 mph85%30.45 "HgN/A
10:00 am8 °FFog.1 mph84%30.46 "Hg1 mi
9:00 am5 °FFrigid.No wind84%30.47 "HgN/A
8:00 am4 °FSnow flurries. Cloudy.1 mph84%30.46 "HgN/A
7:00 am5 °FSnow flurries. Ice fog.1 mph83%30.43 "Hg0 mi
6:00 am4 °FFrigid.1 mph86%30.43 "HgN/A
5:00 am3 °FFrigid.1 mph85%30.43 "HgN/A
4:00 am1 °FFog.N/A84%30.43 "Hg0 mi
3:00 am1 °FFrigid.No wind85%30.44 "HgN/A
2:00 am0 °FFrigid.No wind82%30.44 "HgN/A
1:00 am2 °FFog.No wind86%30.43 "Hg1 mi
12:00 am1 °FFrigid.No wind88%30.45 "HgN/A
11:00 pm
Mon, Jan 23
9 °FFrigid.1 mph87%30.39 "HgN/A
10:00 pm7 °FFog.No wind89%30.40 "Hg1 mi
9:00 pm7 °FFrigid.No wind87%30.40 "HgN/A
8:00 pm14 °FCold.No wind88%30.37 "HgN/A
7:00 pm16 °FClear.No wind90%30.34 "Hg12 mi
6:00 pm20 °FCold.1 mph84%30.32 "HgN/A
Weather by CustomWeather, © 2017

See weather overviewHow to use our weather pages